Location: Erraguntapalli
(18.7700°N, 79.7783°E)
Time: 15:42:09
(UTC+00:00)

Milstar 3 - Pass Details

Date: 15 November 2019
Orbit: 1101 x 5144 km, 28.2° (Epoch: 01 December)

Event Time Altitude Azimuth Distance (km) Brightness Sun altitude
Exits shadow 00:16:23 - 283° (WNW) 3,710 4.8 -7.8°
Reaches altitude 10° 00:16:48 10° 282° (WNW) 3,557 4.7 -7.8°
Maximum altitude 00:24:24 47° 211° (SSW) 1,471 3.4 -6.0°
Drops below altitude 10° 00:30:44 10° 137° (SE) 2,968 6.2 -4.6°
Sets 00:33:34 0° 131° (SE) 4,033 7.2 -4.0°
